Location: Kerb�bon
(47.7970°N, 3.3487°W)
Time: 12:49:49
(UTC+00:00)

Cosmos 1943 Rocket - Pass Details

Date: 12 May 2021
Orbit: 814 x 842 km, 71.0° (Epoch: 18 June)

Event Time Altitude Azimuth Distance (km) Brightness Sun altitude
Exits shadow 23:35:54 27° 236° (SW) 1,547 3.3 -23.4°
Maximum altitude 23:38:48 55° 302° (WNW) 998 2.7 -23.5°
Drops below altitude 10° 23:44:18 10° 21° (NNE) 2,442 5.4 -23.6°
Sets 23:46:48 0° 26° (NNE) 3,375 6.3 -23.6°
